Maugansville, MD

6:31 PM EDT on August 25, 2016 (GMT -0400)
Hagerstown Regional-Henson

Weather History for KHGR - November, 2012

Change the Weather History Date:

Monday, November 5, 2012

  Actual Average Record
Temperature  
Mean Temperature 41 °F 49 °F  
Max Temperature 46 °F 58 °F 77 °F (2015)
Min Temperature 36 °F 39 °F 23 °F (1998)
Degree Days  
Heating Degree Days 24 16  
Month to date heating degree days 109 78  
Since 1 July heating degree days 436 480  
Cooling Degree Days 0 0  
Month to date cooling degree days 0 0  
Year to date cooling degree days 1276 969  
Moisture  
Dew Point 26 °F    
Average Humidity 55    
Maximum Humidity 64    
Minimum Humidity 45    
Precipitation  
Precipitation 0.00 in 0.11 in 0.59 in (2002)
Month to date precipitation T 0.51  
Year to date precipitation 34.40 33.69  
Sea Level Pressure  
Sea Level Pressure 30.15 in    
Wind  
Wind Speed 10 mph (NNW)    
Max Wind Speed 17 mph    
Max Gust Speed 21 mph    
Visibility 10 miles    
Events      
T = Trace of Precipitation, MM = Missing Value Source: NWS Daily Summary

Daily Weather History Graph

Daily Weather History Graph

Search for Another Location

Airport or City:

Trip Planner

Search our weather history database for the weather conditions in past years. The results will help you decide how hot, cold, wet, or windy it might be!

Date:

Astronomy

Nov. 05, 2012 Rise Set
Actual Time 6:44 AM EST 5:04 PM EST
Civil Twilight 6:16 AM EST 5:32 PM EST
Nautical Twilight 5:44 AM EST 6:04 PM EST
Astronomical Twilight 5:12 AM EST 6:35 PM EST
Moon 10:39 PM EST (11/5) 12:02 PM EST (11/5)
Length of Visible Light 11h 15m
Length of Day
10h 19m
Waning Gibbous, 63% of the Moon is Illuminated
Nov 5
Waning Gibbous
Nov 6
Last Quarter
Nov 13
New
Nov 20
First Quarter
Nov 28
Full

Hourly Weather History & Observations

Time (EST) Temp. Windchill Dew Point Humidity Pressure Visibility Wind Dir Wind Speed Gust Speed Precip Events Conditions
12:53 AM 37.0 °F 34.5 °F 27.0 °F 67% 30.09 in 10.0 mi NW 3.5 mph - N/A   Overcast
1:53 AM 37.0 °F 33.3 °F 27.0 °F 67% 30.09 in 10.0 mi NW 4.6 mph - N/A   Overcast
2:53 AM 37.9 °F 31.5 °F 25.0 °F 60% 30.09 in 10.0 mi NW 9.2 mph - N/A   Overcast
3:53 AM 37.0 °F 28.9 °F 25.0 °F 62% 30.09 in 10.0 mi NW 12.7 mph - N/A   Overcast
4:53 AM 37.0 °F 30.4 °F 26.1 °F 65% 30.11 in 10.0 mi NW 9.2 mph - N/A   Overcast
5:53 AM 37.0 °F 31.6 °F 26.1 °F 65% 30.12 in 10.0 mi NNW 6.9 mph - N/A   Overcast
7:53 AM 37.0 °F 31.6 °F 26.1 °F 65% 30.15 in 10.0 mi NW 6.9 mph - N/A   Overcast
8:53 AM 39.0 °F 32.3 °F 26.1 °F 60% 30.16 in 10.0 mi North 10.4 mph - N/A   Overcast
9:53 AM 41.0 °F 34.3 °F 27.0 °F 57% 30.15 in 10.0 mi NW 11.5 mph - N/A   Overcast
10:53 AM 41.0 °F 35.2 °F 26.1 °F 55% 30.16 in 10.0 mi NNW 9.2 mph - N/A   Mostly Cloudy
11:53 AM 44.1 °F 38.6 °F 28.0 °F 53% 30.15 in 10.0 mi NW 10.4 mph 17.3 mph N/A   Scattered Clouds
12:53 PM 44.1 °F 39.5 °F 27.0 °F 51% 30.13 in 10.0 mi WNW 8.1 mph 17.3 mph N/A   Partly Cloudy
1:53 PM 45.0 °F 39.7 °F 26.1 °F 48% 30.11 in 10.0 mi NNW 10.4 mph 18.4 mph N/A   Clear
2:53 PM 46.0 °F 40.2 °F 26.1 °F 46% 30.12 in 10.0 mi NNW 12.7 mph - N/A   Clear
3:53 PM 45.0 °F 39.3 °F 25.0 °F 46% 30.12 in 10.0 mi NNW 11.5 mph - N/A   Clear
4:53 PM 42.1 °F 37.1 °F 25.0 °F 51% 30.13 in 10.0 mi North 8.1 mph - N/A   Clear
5:53 PM 39.0 °F 32.8 °F 26.1 °F 60% 30.16 in 10.0 mi NW 9.2 mph - N/A   Clear
6:53 PM 37.0 °F 32.4 °F 26.1 °F 65% 30.17 in 10.0 mi North 5.8 mph - N/A   Clear
7:53 PM 36.0 °F 32.1 °F 25.0 °F 64% 30.19 in 10.0 mi North 4.6 mph - N/A   Clear
8:53 PM 36.0 °F 32.1 °F 25.0 °F 64% 30.21 in 10.0 mi NNW 4.6 mph - N/A   Clear
9:53 PM 34.0 °F 29.8 °F 23.0 °F 64% 30.22 in 10.0 mi North 4.6 mph - N/A   Clear
10:53 PM 34.0 °F 29.8 °F 23.0 °F 64% 30.22 in 10.0 mi North 4.6 mph - N/A   Partly Cloudy
11:53 PM 34.0 °F - 23.0 °F 64% 30.22 in 10.0 mi Calm Calm - N/A   Overcast